Вернуться в каталог

STARLINK-36655

АктивенСвязьVLEO
NORAD 67834·PAYLOAD·🇺🇸 United States

Запущен Feb 16, 2026 с Vandenberg Space Force Base

Loading…

Ближайшие Пролёты (ближайшие 24 часа)

TLE

СвежийSource: CelesTrak SupGP

Эпоха: Sep 15, 2026, 03:42 UTC

1 67834C 26033P   26258.15465278 -.00017683  00000+0 -64054-3 0  2589
2 67834  42.9995 276.7058 0001433 265.6910 115.7913 15.27584759    14

Отслеживайте STARLINK-36655 в реальном времени с AllMySat

Download on the App Store